When you browse on this site, cookies collect data to enhance your experience and personalize the content and advertising you see.
Visit our Privacy Policy to learn more. By continuing to use the site, you agree to this use of cookies and data.
  • En España
  • Lista de países
  • Para 7 días
  • Temperatura del agua
  • El tiempo en el mapa
  • Informadores
  • user-avatar
    Iniciar sesión

    Tiempo cada hora Rassoha

    Hoy, 21 Septiembre, Sábado

    Tiempo Temperatura Precipitaciones Viento Presión Humedad
    00:00 +3°C° 0 mm 2 mps 738 mmHg 93%
    01:00 +3°C° 0 mm 2 mps 738 mmHg 94%
    02:00 +3°C° 0 mm 2 mps 739 mmHg 95%
    03:00 +2°C° 0 mm 2 mps 739 mmHg 95%
    04:00 +2°C° 0 mm 2 mps 739 mmHg 96%
    05:00 +2°C° 0 mm 2 mps 739 mmHg 96%
    06:00 +2°C° 0 mm 3 mps 739 mmHg 92%
    07:00 +3°C° 0 mm 3 mps 739 mmHg 88%
    08:00 +4°C° 0 mm 3 mps 740 mmHg 84%
    09:00 +5°C° 0 mm 3 mps 740 mmHg 77%
    10:00 +7°C° 0 mm 3 mps 739 mmHg 70%
    11:00 +7°C° 0 mm 4 mps 739 mmHg 63%
    12:00 +8°C° 0.1 mm 4 mps 739 mmHg 61%
    13:00 +8°C° 0.1 mm 4 mps 739 mmHg 58%
    14:00 +8°C° 0 mm 4 mps 739 mmHg 57%
    15:00 +7°C° 0 mm 4 mps 739 mmHg 60%
    16:00 +7°C° 0 mm 3 mps 738 mmHg 62%
    17:00 +7°C° 0 mm 2 mps 738 mmHg 65%
    18:00 +5°C° 0 mm 3 mps 737 mmHg 66%
    19:00 +5°C° 0 mm 3 mps 737 mmHg 67%
    20:00 +4°C° 0 mm 4 mps 737 mmHg 67%
    21:00 +3°C° 0.3 mm 5 mps 736 mmHg 75%
    22:00 +3°C° 0.3 mm 5 mps 735 mmHg 83%
    23:00 +3°C° 0.3 mm 6 mps 734 mmHg 91%

    Mañana, 22 Septiembre, Domingo

    Tiempo Temperatura Precipitaciones Viento Presión Humedad
    00:00 +3°C° 0.5 mm 6 mps 733 mmHg 92%
    01:00 +3°C° 0.5 mm 7 mps 732 mmHg 92%
    02:00 +4°C° 0.5 mm 7 mps 731 mmHg 93%
    03:00 +4°C° 0.5 mm 6 mps 730 mmHg 94%
    04:00 +5°C° 0.5 mm 6 mps 730 mmHg 95%
    05:00 +7°C° 0.5 mm 5 mps 729 mmHg 96%
    06:00 +7°C° 0.3 mm 6 mps 729 mmHg 93%
    07:00 +6°C° 0.3 mm 7 mps 729 mmHg 90%
    08:00 +6°C° 0.3 mm 7 mps 729 mmHg 87%
    09:00 +7°C° 0.1 mm 8 mps 729 mmHg 80%
    10:00 +7°C° 0.1 mm 9 mps 730 mmHg 74%
    11:00 +7°C° 0.1 mm 10 mps 730 mmHg 68%
    12:00 +7°C° 0.1 mm 10 mps 730 mmHg 65%
    13:00 +7°C° 0.1 mm 9 mps 731 mmHg 62%
    14:00 +7°C° 0.1 mm 9 mps 731 mmHg 60%
    15:00 +6°C° 0.1 mm 8 mps 731 mmHg 62%
    16:00 +5°C° 0.1 mm 7 mps 732 mmHg 64%
    17:00 +4°C° 0.1 mm 6 mps 732 mmHg 66%
    18:00 +3°C° 0 mm 6 mps 733 mmHg 69%
    19:00 +3°C° 0 mm 6 mps 733 mmHg 72%
    20:00 +2°C° 0 mm 6 mps 734 mmHg 75%
    21:00 +1°C° 0 mm 5 mps 735 mmHg 77%
    22:00 +1°C° 0 mm 5 mps 735 mmHg 79%
    23:00 0°C° 0 mm 5 mps 736 mmHg 81%

    Pasado mañana, 23 Septiembre, Lunes

    Tiempo Temperatura Precipitaciones Viento Presión Humedad
    00:00 0°C° 0 mm 5 mps 736 mmHg 83%
    01:00 -1°C° 0 mm 4 mps 737 mmHg 86%
    02:00 -1°C° 0 mm 4 mps 737 mmHg 88%
    03:00 -1°C° 0 mm 4 mps 738 mmHg 89%
    04:00 -2°C° 0 mm 4 mps 738 mmHg 91%
    05:00 -2°C° 0 mm 4 mps 739 mmHg 92%
    06:00 -1°C° 0 mm 4 mps 739 mmHg 88%
    07:00 0°C° 0 mm 5 mps 739 mmHg 83%
    08:00 0°C° 0 mm 5 mps 740 mmHg 78%
    09:00 +1°C° 0 mm 5 mps 740 mmHg 75%
    10:00 +2°C° 0 mm 5 mps 740 mmHg 71%
    11:00 +3°C° 0 mm 5 mps 741 mmHg 68%
    12:00 +5°C° 0 mm 5 mps 741 mmHg 64%
    13:00 +6°C° 0 mm 5 mps 741 mmHg 61%
    14:00 +7°C° 0 mm 5 mps 741 mmHg 58%
    15:00 +6°C° 0 mm 5 mps 741 mmHg 61%
    16:00 +5°C° 0 mm 4 mps 741 mmHg 64%
    17:00 +5°C° 0 mm 3 mps 741 mmHg 66%
    18:00 +4°C° 0 mm 3 mps 741 mmHg 69%
    19:00 +3°C° 0 mm 3 mps 741 mmHg 72%
    20:00 +3°C° 0 mm 2 mps 742 mmHg 75%
    21:00 +1°C° 0 mm 3 mps 742 mmHg 78%
    22:00 +1°C° 0 mm 3 mps 742 mmHg 80%
    23:00 0°C° 0 mm 3 mps 742 mmHg 83%

    24 Septiembre, Martes

    Tiempo Temperatura Precipitaciones Viento Presión Humedad
    00:00 0°C° 0 mm 3 mps 742 mmHg 84%
    01:00 0°C° 0 mm 3 mps 742 mmHg 86%
    02:00 -1°C° 0 mm 3 mps 742 mmHg 87%
    03:00 -1°C° 0 mm 3 mps 742 mmHg 88%
    04:00 -1°C° 0 mm 3 mps 742 mmHg 89%
    05:00 -1°C° 0 mm 2 mps 742 mmHg 91%
    06:00 0°C° 0 mm 3 mps 742 mmHg 86%
    07:00 +1°C° 0 mm 3 mps 742 mmHg 82%
    08:00 +2°C° 0 mm 3 mps 742 mmHg 78%
    09:00 +3°C° 0 mm 3 mps 742 mmHg 74%
    10:00 +5°C° 0 mm 3 mps 742 mmHg 70%
    11:00 +7°C° 0 mm 3 mps 742 mmHg 66%
    12:00 +7°C° 0.1 mm 3 mps 742 mmHg 65%
    13:00 +6°C° 0.1 mm 4 mps 742 mmHg 64%
    14:00 +6°C° 0.1 mm 4 mps 742 mmHg 63%
    15:00 +7°C° 0 mm 3 mps 742 mmHg 67%
    16:00 +5°C° 0 mm 3 mps 742 mmHg 70%
    17:00 +5°C° 0 mm 2 mps 741 mmHg 74%
    18:00 +4°C° 0 mm 2 mps 741 mmHg 76%
    19:00 +4°C° 0 mm 1 mps 742 mmHg 78%
    20:00 +3°C° 0 mm 1 mps 742 mmHg 80%
    21:00 +3°C° 0 mm 1 mps 742 mmHg 78%
    22:00 +2°C° 0 mm 1 mps 742 mmHg 77%
    23:00 +2°C° 0 mm 1 mps 742 mmHg 75%

    25 Septiembre, Miércoles

    Tiempo Temperatura Precipitaciones Viento Presión Humedad
    00:00 +2°C° 0 mm 1 mps 742 mmHg 75%
    01:00 +2°C° 0 mm 1 mps 742 mmHg 75%
    02:00 +2°C° 0 mm 1 mps 742 mmHg 75%
    03:00 +2°C° 0 mm 1 mps 742 mmHg 76%
    04:00 +2°C° 0 mm 1 mps 742 mmHg 76%
    05:00 +1°C° 0 mm 1 mps 742 mmHg 77%
    06:00 +3°C° 0 mm 1 mps 742 mmHg 73%
    07:00 +4°C° 0 mm 1 mps 742 mmHg 68%
    08:00 +6°C° 0 mm 1 mps 742 mmHg 64%
    09:00 +7°C° 0 mm 1 mps 742 mmHg 60%
    10:00 +8°C° 0 mm 1 mps 743 mmHg 56%
    11:00 +9°C° 0 mm 1 mps 743 mmHg 51%
    12:00 +10°C° 0 mm 1 mps 743 mmHg 50%
    13:00 +10°C° 0 mm 1 mps 742 mmHg 49%
    14:00 +11°C° 0 mm 1 mps 742 mmHg 48%
    15:00 +10°C° 0 mm 1 mps 742 mmHg 53%
    16:00 +9°C° 0 mm 1 mps 742 mmHg 57%
    17:00 +8°C° 0 mm 1 mps 741 mmHg 62%
    18:00 +6°C° 0 mm 2 mps 741 mmHg 64%
    19:00 +6°C° 0 mm 2 mps 742 mmHg 66%
    20:00 +4°C° 0 mm 3 mps 742 mmHg 68%
    21:00 +4°C° 0 mm 3 mps 741 mmHg 67%
    22:00 +4°C° 0 mm 4 mps 741 mmHg 66%
    23:00 +4°C° 0 mm 4 mps 741 mmHg 65%

    26 Septiembre, Jueves

    Tiempo Temperatura Precipitaciones Viento Presión Humedad
    00:00 +4°C° 0 mm 4 mps 741 mmHg 64%
    01:00 +4°C° 0 mm 4 mps 741 mmHg 62%
    02:00 +3°C° 0 mm 5 mps 740 mmHg 61%
    03:00 +5°C° 0 mm 5 mps 740 mmHg 60%
    04:00 +5°C° 0 mm 5 mps 740 mmHg 58%
    05:00 +4°C° 0 mm 6 mps 740 mmHg 57%
    06:00 +5°C° 0 mm 6 mps 739 mmHg 56%
    07:00 +5°C° 0 mm 7 mps 739 mmHg 55%
    08:00 +6°C° 0 mm 7 mps 739 mmHg 54%
    09:00 +9°C° 0 mm 7 mps 738 mmHg 54%
    10:00 +10°C° 0 mm 7 mps 738 mmHg 54%
    11:00 +11°C° 0 mm 7 mps 738 mmHg 54%
    12:00 +11°C° 0.1 mm 6 mps 738 mmHg 59%
    13:00 +12°C° 0.1 mm 5 mps 737 mmHg 63%
    14:00 +12°C° 0.1 mm 4 mps 737 mmHg 67%
    15:00 +12°C° 0 mm 3 mps 737 mmHg 69%
    16:00 +12°C° 0 mm 3 mps 737 mmHg 71%
    17:00 +12°C° 0 mm 3 mps 736 mmHg 73%
    18:00 +12°C° 0 mm 3 mps 736 mmHg 73%
    19:00 +12°C° 0 mm 4 mps 736 mmHg 73%
    20:00 +12°C° 0 mm 4 mps 736 mmHg 72%
    21:00 +11°C° 0.1 mm 4 mps 736 mmHg 74%
    22:00 +11°C° 0.1 mm 4 mps 735 mmHg 77%
    23:00 +11°C° 0.1 mm 3 mps 735 mmHg 79%
    Mostrar más